Regional Weather Roundup
Issued by NWS

Home | Current Version | Previous Version | Graphics & Text | Print | Product List | Glossary On
Versions: 1 2 3 4 5 6 7 8 9 10 11 12 13 14 15 16 17 18 19 20 21 22 23 24 25 26 27 28 29 30 31 32 33 34 35 36 37 38 39 40 41 42 43 44 45 46 47 48 49 50
439
ASUS43 KOAX 240402
RWRNE

WEATHER ROUNDUP FOR NEBRASKA
NATIONAL WEATHER SERVICE OMAHA NE
1100 PM CDT SAT JUL 23 2016

NOTES: SATELLITE DATA IS BEING USED TO AUGMENT CLOUD COVER ABOVE
       12000 FEET.
       "FAIR" INDICATES FEW OR NO CLOUDS BELOW 12,000 FEET WITH NO
       SIGNIFICANT WEATHER AND/OR OBSTRUCTIONS TO VISIBILITY.

  * THESE STATIONS DO NOT REPORT WEATHER SUCH AS RAIN...SNOW OR FOG.

NEZ001>004-019>022-054>056-240500-
NEBRASKA PANHANDLE

CITY           SKY/WX    TMP DP  RH WIND       PRES   REMARKS
SCOTTSBLUFF    CLEAR     71  58  63 NE9       30.02R
ALLIANCE       PTCLDY    68  59  73 NE9       30.03R
CHADRON        CLEAR     70  48  45 NE3       30.01R
KIMBALL        CLOUDY    76  50  38 SW10      30.09R
SIDNEY         CLOUDY    74  55  51 S12       30.08R
$$

NEZ057>060-069>072-079>082-240500-
SOUTHWEST NEBRASKA

CITY           SKY/WX    TMP DP  RH WIND       PRES   REMARKS
NORTH PLATTE   CLEAR     75  67  76 CALM      29.94R
IMPERIAL       PTCLDY    80  67  64 E9        29.96R
LEXINGTON      CLEAR     78  74  88 N8        29.91R
MCCOOK         CLEAR     76  69  79 N6        29.90R
OGALLALA       PTCLDY    78  62  57 NE6       29.97R
$$

NEZ005>010-023>029-035>040-094-240500-
NORTH CENTRAL NEBRASKA

CITY           SKY/WX    TMP DP  RH WIND       PRES   REMARKS
VALENTINE      PTCLDY    76  53  44 N7        29.97R
AINSWORTH      CLEAR     74  57  55 N6        29.97R
BROKEN BOW     CLEAR     72  65  78 N9        29.92R
O`NEILL        CLEAR     77  67  71 NW10      29.90R
ORD            CLEAR     75  68  78 NW6       29.87R
THEDFORD       CLEAR     73  57  56 NE5       29.98R
$$

NEZ041-046>049-061>064-073>077-083>087-240500-
SOUTH CENTRAL NEBRASKA

CITY           SKY/WX    TMP DP  RH WIND       PRES   REMARKS
GRAND ISLAND   CLEAR     80  74  81 CALM      29.86R
AURORA         CLEAR     80  78  95 CALM      29.85R
HASTINGS       CLEAR     81  75  82 CALM      29.87R
HEBRON         CLOUDY    84  69  59 S12       29.81S
HOLDREGE       CLEAR     76  73  88 N6        29.89R
KEARNEY *      CLEAR     81  72  74 NW5       29.88R
YORK           CLEAR     81  73  78 S7        29.84R
$$

NEZ011>018-030>034-042>045-240500-
NORTHEAST NEBRASKA

CITY           SKY/WX    TMP DP  RH WIND       PRES   REMARKS
NORFOLK        CLEAR     81  76  84 SW9       29.81R
ALBION         CLEAR     79  73  81 NW5       29.86R
BLAIR          CLOUDY    82  76  84 S7        29.82R
FREMONT        CLEAR     86  71  59 S10       29.81R HX  91
TEKAMAH        CLEAR     79  75  87 S6        29.79R
WAYNE          CLEAR     79  78  95 S5        29.80S
$$

NEZ050>053-065>068-078-088>093-240500-
SOUTHEAST NEBRASKA

CITY           SKY/WX    TMP DP  RH WIND       PRES   REMARKS
LINCOLN        CLEAR     85  72  65 SW3       29.83R HX  91
OMAHA EPPLEY   CLOUDY    85  76  74 S8        29.80R HX  94
BEATRICE       CLOUDY    85  71  61 S8        29.82S HX  90
FALLS CITY     CLOUDY    83  73  72 S9        29.83R
NEBRASKA CITY  CLOUDY    81  76  86 S9        29.83S
PLATTSMOUTH    CLOUDY    82  76  81 S9        29.82R HX  90
$$

NEZ044-045-051>053-067-240500-
OMAHA AREA

CITY           SKY/WX    TMP DP  RH WIND       PRES   REMARKS
OMAHA EPPLEY   CLOUDY    85  76  74 S8        29.80R HX  94
BLAIR          CLOUDY    82  76  84 S7        29.82R
FREMONT        CLEAR     86  71  59 S10       29.81R HX  91
MILLARD        CLOUDY    83  78  82 SE3       29.81R HX  93
OFFUTT AFB     CLOUDY    83  76  80 S13       29.80R HX  92
PLATTSMOUTH    CLOUDY    82  76  81 S9        29.82R HX  90
WAHOO          FAIR      80  74  81 S6        29.82R
$$




USA.gov is the U.S. government's official web portal to all federal, state and local government web resources and services.